Terug naar catalogus

DELTA 1 DEB

ActiefUNKNOWN
NORAD 10178·DEBRIS·🇺🇸 United States

Gelanceerd Jul 14, 1977 vanaf Cape Canaveral Space Force Station

Loading…

Volgende Passages (komende 24 uur)

TLE

VersSource: Space-Track

Epoch: Sep 14, 2026, 06:07 UTC

1 10178U 77065G   26257.25555332 -.00000490  00000-0 -17298-2 0  9998
2 10178  28.7118 251.3839 0904668 189.4004 293.7906 12.09521869 21042

Volg DELTA 1 DEB in realtime met AllMySat

Download on the App Store